Regional Weather Roundup
Issued by NWS Portland, ME

Current Version | Previous Version | Text Only | Print | Product List | Glossary Off
Versions: 1 2 3 4 5 6 7 8 9 10 11 12 13 14 15 16 17 18 19 20 21 22 23 24 25 26 27 28 29 30 31 32 33 34 35 36 37 38 39 40 41 42 43 44 45 46 47 48 49 50
000 ASUS41 KGYX 262010 RWRGYX WEATHER ROUNDUP FOR MAINE AND NEW HAMPSHIRE NATIONAL WEATHER SERVICE GRAY ME 400 PM EDT WED APR 26 2017 MEZ002-005-006-010-012-015-018-020-021-024-026-027-029-262100- MAINE CITY SKY/WX TMP DP RH WIND PRES REMARKS PORTLAND LGT RAIN 53 52 96 VRB5 29.91F FOG SANFORD LGT RAIN 55 54 96 NE6 29.89F FOG BAR HARBOR CLOUDY 57 55 93 S14G24 29.99F WISCASSET CLOUDY 56 55 97 S8 29.93F ROCKLAND LGT RAIN 51 50 96 S6 29.95F FOG FRYEBURG LGT RAIN 53 52 96 N7 29.92F FOG LEWISTONAUBURN LGT RAIN 54 54 100 NE9 29.93F FOG AUGUSTA RAIN 53 51 93 N7 29.95F FOG WATERVILLE LGT RAIN 56 55 97 CALM 29.93F FOG BANGOR LGT RAIN 57 56 96 S9 29.98F FOG GREENVILLE N/A 50 50 100 SE6 29.96S MILLINOCKET LGT RAIN 53 53 100 CALM 30.02S FOG HOULTON CLOUDY 54 54 100 VRB5 30.03R PRESQUE ISLE LGT RAIN 52 51 97 S7 30.03R FRENCHVILLE LGT RAIN 48 46 93 SE7 30.00F VSB 1/2 CARIBOU CLOUDY 51 49 92 S6 30.01F FOG $$ NHZ002-005-008-009-011-012-014-262100- NEW HAMPSHIRE CITY SKY/WX TMP DP RH WIND PRES REMARKS PORTSMOUTH DRZL/FOG 54 53 99 E7 29.85F VSB 3/4 ROCHESTER CLOUDY 55 53 93 NE3 29.87F FOG NASHUA CLOUDY 56 55 97 N5 29.84F MANCHESTER CLOUDY 57 53 86 N8 29.83F CONCORD CLOUDY 56 55 97 N5 29.86F FOG LACONIA LGT RAIN 52 51 97 NE10 29.89F FOG PLYMOUTH CLOUDY 55 52 90 CALM 29.89F BERLIN CLOUDY 59 52 77 N6 29.92F WHITEFIELD CLOUDY 62 51 67 NE8 29.87F JAFFREY CLOUDY 55 55 100 VRB5 29.85F FOG KEENE CLOUDY 57 54 89 N6 29.84F LEBANON CLOUDY 60 53 77 NE8 29.85F MT WASHINGTON FOG 45 45 100 SE38G46 N/A VSB 1/16 $$ VTZ005-007-008-262100- VERMONT CITY SKY/WX TMP DP RH WIND PRES REMARKS ST JOHNSBURY N/A 60 57 89 MISG 29.86F MONTPELIER LGT RAIN 56 55 97 CALM 29.90F BURLINGTON CLOUDY 70 55 59 SE16 29.80F $$ MAZ007-012-024-CTZ003-RIZ002-NYZ038-NYZ072-262100- SOUTHERN NEW ENGLAND AND NY CITY SKY/WX TMP DP RH WIND PRES REMARKS BOSTON LGT RAIN 53 53 100 NE6 29.82F VSB 1/4 WORCESTER FOG 54 53 97 NE7 29.81F VSB 1/4 NANTUCKET FOG 54 53 97 SE20 29.77F VSB 1/4 PROVIDENCE LGT RAIN 60 60 100 NE5 29.79F HARTFORD CLOUDY 61 55 81 N10 29.79F ALBANY PTSUNNY 69 57 65 VRB3 29.77F NEW YORK CITY CLOUDY 60 56 86 NE12G23 29.76F FOG $$ ANZ081-ANZ082-ANZ150-NHZ014-MEZ023>029-262100- COASTAL MARINE OBSERVATIONS STATION/POSITION TIME TEMP WIND PRES WAVE AIR SEA DIR/SP/G HT/PER (UTC) (F) (DEG/KT/KT) (MB) (FT/S) MOUNT DESERT ROC 2000 47 1014.9F MATINICUS ROCK 2000 49 130/ 19/ 21 1013.1F ISLE OF SHOALS 2000 50 70/ 7/ 8 1010.9F JEFFREYS LEDGE 1906 44 N/A 8/ 7 CASHES LEDGE BUO 1850 49 43 1012.9 8/11 GEORGES BANK BUO 1850 53 43 1015.8 13/10 $$ .............KEY.............. WCI - WIND CHILL TC - TEMPERATURE IN CELSIUS VSB - VISIBILITY IN MILES HX - HEAT INDEX FAIR- INDICATES FEW OR NO CLOUDS BELOW 12,000 FT, WITH NO SIGNIFICANT WEATHER AND/OR OBSTRUCTIONS TO VISIBILITY.

USA.gov is the U.S. government's official web portal to all federal, state and local government web resources and services.